| time (UTC) | temp F | wind direction | speed MPH | gust MPH | rain 1hr in | rain 24hr in | rain mn in | humidity % | barometer mb |
| 20260502214556 | 62 | 263 | 0.0 | 1.0 | 0.00 | 0.00 | 0.00 | 52 | 1012.3 |
| 20260502213037 | 63 | 263 | 0.0 | 3.0 | 0.00 | 0.00 | 0.00 | 48 | 1012.4 |
| 20260502211542 | 63 | 264 | 1.0 | 3.0 | 0.00 | 0.00 | 0.00 | 47 | 1012.5 |
| 20260502210139 | 64 | 267 | 0.0 | 3.0 | 0.00 | 0.00 | 0.00 | 47 | 1012.6 |
| 20260502204555 | 64 | 258 | 0.0 | 2.0 | 0.00 | 0.00 | 0.00 | 47 | 1012.6 |
| 20260502203058 | 64 | 250 | 0.0 | 1.0 | 0.00 | 0.00 | 0.00 | 47 | 1012.7 |
| 20260502201541 | 65 | 241 | 0.0 | 1.0 | 0.00 | 0.00 | 0.00 | 51 | 1012.7 |
| 20260502200039 | 65 | 241 | 0.0 | 1.0 | 0.00 | 0.00 | 0.00 | 52 | 1012.8 |
| 20260502194642 | 66 | 241 | 0.0 | 1.0 | 0.00 | 0.00 | 0.00 | 51 | 1012.8 |
| 20260502193051 | 67 | 241 | 0.0 | 2.0 | 0.00 | 0.00 | 0.00 | 49 | 1012.8 |
| 20260502191546 | 68 | 241 | 0.0 | 3.0 | 0.00 | 0.00 | 0.00 | 47 | 1012.7 |
| 20260502190042 | 68 | 209 | 0.0 | 3.0 | 0.00 | 0.00 | 0.00 | 45 | 1012.7 |
| 20260502184641 | 68 | 227 | 1.0 | 4.0 | 0.00 | 0.00 | 0.00 | 46 | 1012.7 |
| 20260502183058 | 68 | 217 | 1.0 | 5.0 | 0.00 | 0.00 | 0.00 | 46 | 1012.8 |
| 20260502163058 | 73 | 223 | 7.0 | 12.0 | 0.00 | 0.00 | 0.00 | 38 | 1013.1 |
| 20260502161651 | 74 | 257 | 7.0 | 15.0 | 0.00 | 0.00 | 0.00 | 37 | 1013.4 |
| 20260502151648 | 74 | 198 | 7.0 | 12.0 | 0.00 | 0.00 | 0.00 | 40 | 1014.0 |
| 20260502150108 | 74 | 200 | 8.0 | 17.0 | 0.00 | 0.00 | 0.00 | 39 | 1014.1 |
| 20260502130140 | 76 | 216 | 9.0 | 16.0 | 0.00 | 0.00 | 0.00 | 34 | 1015.4 |
| 20260502123140 | 74 | 210 | 8.0 | 14.0 | 0.00 | 0.00 | 0.00 | 37 | 1015.8 |
| 20260502121552 | 75 | 178 | 8.0 | 15.0 | 0.00 | 0.00 | 0.00 | 37 | 1016.1 |
| 20260502120153 | 75 | 202 | 9.0 | 13.0 | 0.00 | 0.00 | 0.00 | 37 | 1016.2 |
| 20260502114611 | 75 | 221 | 10.0 | 17.0 | 0.00 | 0.00 | 0.00 | 36 | 1016.5 |
| 20260502113016 | 74 | 208 | 10.0 | 16.0 | 0.00 | 0.00 | 0.00 | 38 | 1016.5 |
| 20260502111606 | 74 | 209 | 7.0 | 11.0 | 0.00 | 0.00 | 0.00 | 40 | 1016.7 |
| 20260502110155 | 74 | 219 | 8.0 | 14.0 | 0.00 | 0.00 | 0.00 | 40 | 1017.0 |
| 20260502104553 | 74 | 193 | 6.0 | 14.0 | 0.00 | 0.00 | 0.00 | 42 | 1017.1 |
| 20260502103005 | 74 | 232 | 6.0 | 12.0 | 0.00 | 0.00 | 0.00 | 40 | 1017.2 |
| 20260502101627 | 73 | 228 | 4.0 | 12.0 | 0.00 | 0.00 | 0.00 | 46 | 1017.3 |
| 20260502071507 | 65 | 211 | 4.0 | 10.0 | 0.00 | 0.00 | 0.00 | 54 | 1018.5 |
| 20260502070001 | 63 | 221 | 6.0 | 10.0 | 0.00 | 0.00 | 0.00 | 54 | 1018.6 |
| 20260502064559 | 63 | 186 | 5.0 | 12.0 | 0.00 | 0.00 | 0.00 | 55 | 1018.8 |
| 20260502063057 | 62 | 182 | 6.0 | 11.0 | 0.00 | 0.00 | 0.00 | 56 | 1018.8 |
| 20260502061549 | 60 | 190 | 4.0 | 7.0 | 0.00 | 0.00 | 0.00 | 61 | 1018.8 |
| 20260502060043 | 58 | 198 | 3.0 | 6.0 | 0.00 | 0.00 | 0.00 | 64 | 1019.0 |
| 20260502054541 | 56 | 225 | 1.0 | 3.0 | 0.00 | 0.00 | 0.00 | 68 | 1019.1 |
| 20260502053034 | 53 | 227 | 0.0 | 2.0 | 0.00 | 0.00 | 0.00 | 71 | 1019.2 |
| 20260502051529 | 52 | 229 | 0.0 | 1.0 | 0.00 | 0.00 | 0.00 | 77 | 1019.3 |
| 20260502050024 | 49 | 229 | 0.0 | 0.0 | 0.00 | 0.00 | 0.00 | 81 | 1019.4 |
| 20260502044520 | 46 | 229 | 0.0 | 0.0 | 0.00 | 0.00 | 0.00 | 81 | 1019.6 |
| 20260502043015 | 44 | 229 | 0.0 | 0.0 | 0.00 | 0.00 | 0.00 | 84 | 1019.6 |
| 20260502041512 | 41 | 229 | 0.0 | 0.0 | 0.00 | 0.00 | 0.00 | 88 | 1019.8 |
| 20260502040008 | 0 | 0.0 | 0.0 | 0.00 | 0.00 | 0.00 | 1019.9 | ||
| 20260502034505 | 0 | 0.0 | 0.0 | 0.00 | 0.00 | 0.00 | 1020.1 | ||
| 20260502033100 | 38 | 229 | 0.0 | 0.0 | 0.00 | 0.00 | 0.00 | 88 | 1020.3 |
| 20260502033001 | 38 | 229 | 0.0 | 0.0 | 0.00 | 0.00 | 0.00 | 88 | 1020.3 |
| 20260502031558 | 38 | 229 | 0.0 | 0.0 | 0.00 | 0.00 | 0.00 | 88 | 1020.4 |
| 20260502030106 | 38 | 229 | 0.0 | 0.0 | 0.00 | 0.00 | 0.00 | 87 | 1020.6 |
| 20260502024556 | 39 | 229 | 0.0 | 0.0 | 0.00 | 0.00 | 0.00 | 87 | 1020.7 |
| 20260502023120 | 39 | 229 | 0.0 | 0.0 | 0.00 | 0.00 | 0.00 | 88 | 1020.9 |
| 20260502021553 | 39 | 229 | 0.0 | 0.0 | 0.00 | 0.00 | 0.00 | 87 | 1021.1 |
| 20260502020104 | 39 | 229 | 0.0 | 0.0 | 0.00 | 0.00 | 0.00 | 87 | 1021.3 |
| 20260502014551 | 39 | 229 | 0.0 | 0.0 | 0.00 | 0.00 | 0.00 | 87 | 1021.4 |
| 20260502013059 | 39 | 229 | 0.0 | 0.0 | 0.00 | 0.00 | 0.00 | 87 | 1021.5 |
| 20260502011545 | 39 | 229 | 0.0 | 0.0 | 0.00 | 0.00 | 0.00 | 86 | 1021.7 |
| 20260502010044 | 40 | 229 | 0.0 | 0.0 | 0.00 | 0.00 | 0.00 | 86 | 1021.7 |
| 20260502004548 | 40 | 229 | 0.0 | 0.0 | 0.00 | 0.00 | 0.00 | 86 | 1021.9 |
| 20260502003039 | 40 | 229 | 0.0 | 0.0 | 0.00 | 0.00 | 0.00 | 86 | 1022.1 |
| 20260502001554 | 40 | 229 | 0.0 | 0.0 | 0.00 | 0.00 | 0.00 | 87 | 1022.2 |
| 20260502000037 | 40 | 229 | 0.0 | 0.0 | 0.00 | 0.00 | 0.00 | 86 | 1022.4 |
| 20260501234534 | 41 | 229 | 0.0 | 0.0 | 0.00 | 0.00 | 0.00 | 85 | 1022.4 |
| 20260501233134 | 41 | 229 | 0.0 | 0.0 | 0.00 | 0.00 | 0.00 | 85 | 1022.5 |
| 20260501231530 | 41 | 229 | 0.0 | 0.0 | 0.00 | 0.00 | 0.00 | 84 | 1022.6 |
| 20260501230035 | 42 | 229 | 0.0 | 0.0 | 0.00 | 0.00 | 0.00 | 85 | 1022.7 |
| 20260501224527 | 42 | 229 | 0.0 | 0.0 | 0.00 | 0.00 | 0.00 | 85 | 1022.9 |
| 20260501223026 | 42 | 229 | 0.0 | 0.0 | 0.00 | 0.00 | 0.00 | 84 | 1023.0 |
| 20260501221522 | 42 | 229 | 0.0 | 0.0 | 0.00 | 0.00 | 0.00 | 81 | 1023.0 |
| 20260501220038 | 43 | 229 | 0.0 | 0.0 | 0.00 | 0.00 | 0.00 | 80 | 1023.0 |